Theta_e
331 329 328 323 306 305 300 303 308 308 311 319 321 319 318 320 316 312 335 339 339 337 344 344 345 348 347 346 344 342 341 340 339 337 336 335 334 333 333 333 334 334 333 334 333 334 334 334 333
328 326 325 315 302 297 300 306 304 309 312 319 320 320 319 316 325 330 333 339 338 338 343 343 343 347 347 345 343 341 340 339 337 335 336 335 335 333 333 334 334 333 333 334 334 334 334 334 333
327 324 316 310 303 297 299 305 306 309 313 317 317 323 322 320 328 331 338 339 337 337 342 341 342 347 346 344 343 341 341 340 338 336 335 335 334 333 334 333 334 334 333 333 333 332 334 334 335
323 321 317 305 301 304 304 306 307 309 314 321 321 317 325 331 331 335 339 340 337 338 341 339 342 346 345 343 341 341 341 339 337 336 335 335 334 334 335 333 333 333 333 336 335 334 334 336 335
323 317 307 304 304 308 310 309 309 307 310 311 316 314 320 331 335 336 338 339 337 339 340 340 341 344 343 342 342 341 340 339 335 334 338 335 333 334 333 332 333 335 336 337 338 336 335 336 335
314 315 304 301 305 309 312 313 311 309 309 310 310 312 315 333 333 336 339 339 340 339 340 340 337 339 340 341 340 340 340 339 337 338 336 335 334 334 333 334 335 337 338 338 338 336 336 337 336
310 308 303 303 304 307 310 315 311 310 310 309 313 308 315 326 333 336 337 338 340 339 337 337 339 339 334 336 337 338 338 337 337 333 334 334 335 335 335 337 336 337 338 338 338 338 337 335 334
311 308 302 304 302 304 311 313 315 313 311 318 318 309 310 328 333 335 335 335 336 337 335 334 335 341 338 337 331 333 335 335 334 334 332 331 332 333 335 334 337 338 339 339 339 338 336 334 331
313 300 298 300 301 304 311 309 314 316 313 315 317 319 322 331 333 332 331 331 333 333 335 336 337 337 338 337 332 329 330 330 330 330 328 327 331 334 333 332 334 337 337 336 338 336 332 329 326
304 297 297 302 305 306 308 309 311 310 310 311 314 319 325 329 330 329 328 328 329 330 332 335 338 337 337 335 335 334 332 332 332 331 331 330 330 332 331 328 327 332 333 336 336 332 327 326 324
302 296 300 303 306 306 304 306 310 307 305 309 309 313 317 322 327 328 329 330 331 331 330 333 335 337 333 330 332 333 332 332 331 331 330 331 331 333 333 333 332 333 327 333 331 327 328 328 324
294 298 301 302 302 300 299 302 301 303 304 308 310 313 316 316 321 324 325 327 330 331 330 332 335 334 332 331 331 330 330 331 330 330 331 332 331 332 332 332 333 333 331 331 330 330 327 327 325
294 295 297 298 297 296 296 294 294 295 299 301 303 307 311 311 313 318 323 326 328 330 331 331 333 334 333 330 330 328 329 329 329 329 330 330 329 328 331 331 332 329 329 329 328 326 324 322 321
297 296 295 295 295 296 293 294 295 297 301 302 302 301 303 307 310 314 317 322 326 330 330 332 332 332 332 328 328 328 327 328 328 329 328 328 329 328 328 328 330 330 326 325 328 324 322 319 319
296 291 294 295 294 292 293 288 290 298 300 298 299 300 301 302 305 308 313 318 323 326 331 330 331 331 331 327 327 327 328 326 326 328 330 329 329 328 329 327 325 324 322 323 322 319 319 316 314
290 291 287 292 292 292 291 284 292 296 294 293 295 296 296 298 299 303 307 313 316 321 329 329 330 330 331 329 326 327 327 326 326 328 327 329 330 329 328 322 314 311 315 319 316 315 314 311 310
289 283 284 286 292 290 289 285 291 295 294 293 294 295 296 297 299 300 303 306 311 318 322 328 329 327 328 327 326 327 326 325 326 328 328 329 329 328 322 318 311 307 312 316 313 312 311 309 307
281 282 284 284 288 290 288 287 291 293 293 293 294 295 296 296 298 301 301 303 304 312 319 324 329 327 328 328 324 324 324 324 325 327 327 329 328 323 320 312 306 305 310 313 311 309 310 307 303
285 284 283 287 290 287 287 287 290 293 293 293 294 295 295 297 300 302 302 303 305 307 314 319 326 326 326 325 321 321 321 322 323 326 326 326 323 319 313 309 303 304 309 309 309 307 305 301 298
286 284 285 287 289 288 287 286 290 292 292 293 293 294 295 297 299 301 303 303 304 305 308 316 323 325 325 325 322 321 321 321 323 323 322 320 317 313 309 304 301 302 305 307 305 302 299 298 297
285 284 284 283 287 289 287 284 287 291 293 294 295 296 297 297 298 301 303 304 305 304 306 309 317 323 325 325 322 320 318 317 317 317 315 313 310 309 305 303 300 300 303 304 302 301 300 295 297
281 287 286 284 283 279 287 276 284 288 289 292 293 295 297 300 301 302 303 303 305 307 308 309 314 320 324 324 320 317 311 308 310 313 311 306 307 305 304 301 300 299 302 303 302 302 301 297 294
283 288 286 285 283 282 283 278 283 288 286 289 292 294 298 300 301 301 301 303 305 308 310 310 310 319 320 323 321 316 311 309 311 307 302 303 304 303 300 298 298 298 299 301 301 301 300 299 295
289 286 286 287 284 276 281 281 281 284 286 289 292 294 297 298 301 302 302 304 306 307 308 310 310 316 318 322 319 314 313 311 306 305 301 299 298 297 295 295 294 295 297 299 298 297 298 297 296
287 283 277 276 276 276 282 280 281 287 290 290 291 293 296 299 299 300 300 302 304 304 305 308 309 310 317 317 318 313 314 310 304 303 301 297 294 294 293 292 292 291 291 292 292 292 294 294 292
283 282 276 269 271 275 282 276 282 289 291 293 293 294 296 297 298 299 299 299 300 300 303 304 305 309 315 314 316 314 315 308 307 306 299 295 293 292 292 291 290 289 290 289 289 289 289 290 289
283 280 285 277 278 275 278 282 287 289 290 291 290 292 293 295 296 296 296 296 296 297 299 301 304 309 314 316 314 313 314 307 305 301 298 295 293 291 291 290 288 288 288 288 288 287 287 288 288
284 287 278 280 271 269 275 277 279 285 285 288 289 291 292 293 293 292 293 293 294 296 297 301 304 308 314 315 312 311 308 306 302 299 294 292 290 290 289 289 287 287 287 287 287 286 287 286 287
282 281 282 282 278 272 270 276 287 285 286 288 290 291 291 290 291 291 291 292 294 296 301 302 306 310 312 312 311 305 304 300 297 294 292 291 289 289 288 288 287 286 286 286 285 286 286 286 285
284 281 282 276 274 277 274 274 288 289 290 289 289 290 290 291 290 290 291 291 292 299 306 309 310 311 311 309 302 299 296 295 293 292 291 290 289 289 288 287 286 285 286 286 286 286 286 285 284
Wind_Speed
18 10 6 6 7 7 13 13 8 7 5 3 1 4 4 6 6 5 4 9 12 17 20 19 17 19 19 16 15 15 14 13 12 12 13 13 13 12 12 12 11 10 10 9 9 9 10 10 9
12 11 7 6 8 13 11 12 9 10 9 4 6 7 8 10 3 6 6 9 16 17 20 19 16 18 19 20 17 15 15 15 13 13 13 13 13 12 12 12 11 11 10 10 10 10 9 9 9
12 7 7 5 11 15 14 6 7 12 4 7 5 1 9 3 5 4 4 12 16 18 19 17 17 18 20 19 19 17 16 16 16 15 14 14 13 13 11 10 10 11 11 10 9 10 9 9 9
5 7 6 11 16 12 12 12 1 12 5 4 5 9 4 4 2 4 6 12 16 18 18 21 17 18 20 18 18 18 17 16 16 16 15 14 12 11 11 11 10 11 11 10 10 10 10 10 10
7 6 11 14 17 17 15 6 8 11 11 8 3 12 4 5 1 3 6 10 15 15 16 19 17 19 20 19 18 18 18 17 19 17 14 13 13 11 11 11 11 11 10 10 10 11 10 10 11
8 5 14 15 18 17 14 10 11 12 14 15 12 14 11 5 2 2 5 11 14 15 14 15 14 18 19 19 19 17 16 16 16 16 16 15 14 12 11 11 11 10 12 11 12 12 11 11 13
12 13 17 20 20 19 15 11 8 13 15 14 13 16 11 4 3 2 4 7 12 13 13 14 16 16 15 16 16 16 15 16 14 17 16 16 13 11 10 8 10 10 11 11 12 13 13 12 14
9 11 22 19 18 22 17 16 16 14 17 13 6 7 10 9 5 4 3 6 9 9 10 12 17 17 16 15 12 12 12 12 13 10 10 11 10 10 8 7 9 8 9 9 12 14 15 14 14
8 9 14 20 21 20 15 16 14 12 10 13 10 10 10 5 7 7 7 7 7 8 10 11 13 15 15 14 13 10 10 11 10 11 9 9 10 11 11 8 10 7 7 7 14 16 15 14 12
9 12 16 15 15 14 15 15 15 19 19 19 18 16 11 7 7 8 11 12 12 10 9 9 13 14 14 12 15 15 14 12 12 13 13 11 11 12 12 9 6 5 7 11 17 16 15 10 6
5 16 15 12 10 9 12 14 15 19 22 18 19 17 17 8 9 11 13 15 18 14 10 11 11 14 11 9 9 8 7 8 9 14 13 12 9 8 7 6 6 6 8 8 10 10 6 8 7
10 12 8 9 12 11 16 18 19 20 22 22 24 23 22 21 12 14 16 15 16 18 16 14 14 13 12 8 9 10 9 9 8 10 13 10 7 7 7 6 7 7 5 9 8 4 4 7 7
11 9 9 12 14 15 16 18 21 23 23 22 24 23 22 23 24 21 19 19 17 17 18 18 14 14 13 13 10 10 10 10 11 11 13 9 7 7 8 4 4 6 7 7 7 5 7 8 8
6 11 15 13 13 12 15 15 15 17 15 13 17 21 19 21 22 23 22 19 18 18 19 18 20 17 15 13 13 11 9 11 10 10 10 10 8 8 8 8 6 6 7 6 7 7 8 7 8
9 12 12 2 3 15 14 17 9 3 9 14 15 14 17 19 20 23 24 20 15 16 19 18 19 18 19 18 14 12 10 10 10 10 13 13 11 10 10 8 7 6 6 8 7 6 8 8 8
7 5 6 5 11 5 10 13 5 14 15 22 24 22 21 22 24 22 22 22 16 14 18 18 15 20 20 16 13 11 11 10 10 10 10 15 14 11 10 8 7 6 6 7 7 7 8 8 8
4 8 13 12 6 10 8 22 17 22 22 22 23 24 23 22 22 22 23 22 22 16 13 19 19 20 21 18 14 14 14 12 11 11 10 14 13 11 9 8 7 9 6 7 7 7 8 8 7
11 13 12 15 11 20 21 26 22 21 24 26 26 24 23 22 22 20 22 21 23 21 16 15 20 21 22 15 14 12 12 12 11 11 11 14 9 11 9 7 8 8 6 7 6 8 7 7 7
10 13 16 17 20 17 16 25 25 23 24 25 23 21 20 20 20 18 18 19 19 20 19 19 20 21 17 15 13 12 13 13 12 11 12 12 11 12 8 6 9 8 8 8 9 8 10 8 9
11 14 13 14 11 19 20 27 27 23 21 22 22 21 21 20 17 16 16 17 19 19 19 19 19 21 19 16 13 12 13 12 11 10 11 13 12 12 10 10 9 9 7 9 9 10 9 7 8
10 14 11 18 21 20 17 19 11 21 19 16 19 18 15 16 13 14 14 14 16 18 18 19 19 21 22 21 15 13 8 10 9 11 11 12 11 10 10 10 10 10 8 8 10 10 10 7 7
10 7 14 19 17 9 13 15 12 17 21 22 17 10 12 13 12 14 16 17 17 14 17 18 20 20 23 26 19 21 15 14 10 12 10 9 11 12 11 9 9 9 6 9 9 9 7 9 8
8 13 18 20 17 14 13 7 12 27 22 17 17 15 13 14 16 16 17 18 20 16 16 17 19 20 24 26 26 20 20 14 12 10 13 11 10 10 11 9 9 8 5 6 8 8 5 6 7
13 15 22 11 2 6 12 12 18 25 20 20 21 19 18 18 18 18 19 19 18 17 18 19 20 21 23 23 25 26 26 19 14 14 12 10 8 9 10 12 10 8 7 6 7 5 6 5 6
5 13 6 4 7 14 14 18 22 27 22 22 22 22 21 19 19 20 22 19 20 23 21 19 21 23 23 23 24 27 26 22 22 20 14 15 11 10 12 13 11 9 10 8 7 7 7 7 7
12 4 3 9 12 20 18 13 11 22 23 21 18 20 20 24 22 22 24 25 25 24 24 23 25 24 23 23 22 25 25 16 16 19 14 12 11 10 15 12 13 12 13 10 10 7 6 7 7
3 5 6 7 16 15 10 23 20 16 11 16 23 21 24 24 22 27 28 26 26 25 25 25 26 25 24 24 17 23 21 20 17 18 16 12 15 14 14 14 15 12 13 12 11 7 8 9 7
12 8 4 5 8 15 15 26 14 16 17 22 21 25 25 24 32 27 25 27 22 24 25 25 25 25 24 22 17 12 17 19 18 18 19 18 17 17 18 16 16 13 12 14 12 8 7 10 6
5 6 7 9 7 9 14 15 7 12 23 17 26 26 24 27 26 25 25 21 22 26 22 22 23 25 21 19 18 15 13 17 18 16 18 19 20 19 18 18 16 16 12 11 12 10 8 10 7
8 11 11 7 9 13 14 26 22 18 21 25 27 23 27 27 27 24 21 18 20 20 11 12 15 16 17 16 19 18 16 17 17 19 19 20 20 19 19 18 17 16 12 11 12 12 8 9 9
Wind_Direction
307 318 296 258 248 232 262 247 275 272 242 86 351 260 271 330 311 352 129 167 168 163 153 163 164 159 155 152 147 145 149 152 153 149 144 141 137 140 137 133 127 124 127 122 115 112 111 103 102
309 315 251 277 250 251 247 241 222 261 278 32 285 275 261 273 109 115 144 168 159 163 151 169 165 164 156 152 150 155 157 155 156 159 150 148 144 142 142 140 138 135 128 125 122 116 113 105 102
280 282 280 243 246 255 266 12 313 271 24 279 267 205 306 317 66 46 61 174 161 166 157 166 167 167 158 156 150 161 160 160 166 160 156 160 154 152 143 141 138 134 134 129 122 123 121 110 100
291 221 233 249 258 265 287 301 311 309 232 233 309 272 150 34 18 27 127 173 176 170 166 143 167 167 160 156 161 165 163 164 160 162 167 162 158 152 155 152 146 143 141 143 135 126 128 123 104
236 260 256 249 252 263 278 264 290 283 283 286 353 283 256 104 77 112 163 182 178 177 172 157 164 165 162 163 165 171 169 165 169 171 164 160 165 160 161 154 149 155 152 141 145 135 142 122 109
252 248 250 253 255 249 248 251 270 277 277 275 272 274 274 92 126 143 182 187 185 179 177 165 167 164 165 165 168 174 172 170 174 161 166 166 166 170 163 168 180 162 162 161 148 145 125 119 102
245 255 251 265 270 268 265 263 250 278 276 278 305 288 280 169 73 38 206 183 201 179 184 171 179 168 158 164 169 174 173 174 171 176 173 166 164 167 177 175 199 183 162 156 143 132 129 117 101
263 253 260 258 262 265 269 271 264 258 270 286 295 254 256 53 97 120 182 189 224 203 182 181 183 177 178 175 167 171 171 171 167 172 162 158 160 170 169 173 202 179 163 140 142 133 123 118 110
249 246 249 255 260 272 268 262 263 268 268 274 251 260 302 52 131 151 166 194 220 232 197 176 187 183 183 181 175 166 168 163 164 157 156 160 183 181 165 180 156 168 155 145 137 125 117 111 101
234 238 257 274 305 325 328 308 294 291 283 278 264 258 242 216 194 194 194 195 205 203 220 199 192 190 185 186 172 190 184 182 186 185 179 193 190 180 184 151 120 163 142 140 127 127 137 149 119
271 251 286 312 7 332 300 287 285 279 271 274 282 282 285 251 217 231 218 215 206 199 197 214 200 196 192 199 166 191 183 192 191 191 184 206 190 175 173 153 169 153 150 130 130 151 188 129 147
271 253 294 307 312 305 291 295 281 272 279 294 288 289 289 279 242 240 251 238 218 201 195 201 214 188 189 196 187 187 186 192 190 192 190 203 189 170 184 176 176 158 166 161 159 154 116 143 128
251 294 307 290 292 287 288 278 280 277 278 278 278 275 275 280 276 269 246 252 238 215 202 198 205 200 188 193 190 196 193 188 192 191 194 196 193 178 173 177 184 168 175 172 137 140 144 138 133
349 292 289 291 291 294 285 291 287 275 293 306 290 281 281 285 282 273 258 243 247 213 222 202 197 203 191 197 193 196 195 185 196 195 182 192 196 194 172 180 191 172 168 173 143 150 145 138 131
289 292 289 260 294 308 348 281 251 109 286 287 288 283 282 278 280 280 279 267 253 232 212 214 200 199 196 192 203 196 192 191 193 200 171 196 207 181 187 174 179 154 152 148 140 138 140 136 128
298 281 330 146 333 328 340 291 341 326 302 297 290 285 281 274 265 261 266 272 281 269 215 208 199 205 204 198 200 196 189 193 191 195 183 194 202 191 184 166 171 148 153 145 141 145 147 141 139
201 324 319 322 301 312 317 297 291 300 292 292 289 285 283 279 273 270 262 257 261 264 266 214 194 200 200 200 196 198 187 192 192 188 192 196 195 182 173 169 152 150 150 150 149 148 153 145 136
311 312 307 303 316 311 304 285 292 299 293 289 287 284 282 280 277 275 274 270 262 253 250 245 208 197 200 198 202 199 184 189 191 197 188 187 181 177 173 147 148 153 148 146 145 145 146 136 131
295 295 297 303 307 308 297 293 295 299 292 284 286 288 286 285 293 290 273 272 268 267 251 254 224 195 196 200 196 196 186 185 191 190 180 174 175 174 153 149 150 153 156 154 150 140 142 128 123
295 293 288 292 303 309 295 294 290 284 284 296 295 293 292 293 287 286 284 278 270 267 267 246 247 205 195 195 190 197 192 180 185 171 174 174 170 165 154 154 155 155 144 147 143 146 138 132 165
294 300 309 304 311 297 303 294 311 303 287 296 293 284 290 289 289 293 301 287 268 262 258 263 244 216 193 198 184 192 175 169 181 173 177 178 156 153 150 155 150 153 152 154 153 157 154 146 179
304 357 308 302 316 309 340 293 307 294 309 300 300 314 290 292 290 294 296 298 298 271 259 252 261 221 219 187 185 183 169 166 185 177 163 152 154 157 154 147 146 144 151 156 160 164 158 145 152
283 320 300 291 286 301 291 251 284 299 306 312 317 315 291 279 283 293 300 295 286 289 290 256 245 234 216 202 189 178 178 186 167 164 148 147 146 141 139 134 126 124 111 125 147 156 138 149 144
292 293 292 270 311 242 253 251 299 299 302 316 299 306 297 298 294 291 304 300 281 284 278 273 248 240 219 230 184 180 181 179 155 162 149 149 138 138 129 120 111 102 101 107 116 110 111 113 121
256 329 309 272 280 284 299 308 270 290 294 319 310 306 306 293 300 295 299 290 282 282 271 262 259 244 218 211 194 180 185 172 167 165 160 150 146 150 143 128 126 117 111 104 103 108 115 116 114
307 296 316 303 311 301 301 259 272 309 298 300 320 315 316 312 297 294 299 292 284 278 269 260 255 243 216 207 213 180 180 171 171 168 158 148 145 141 132 130 123 121 120 125 111 98 95 101 99
109 245 339 275 262 272 265 276 293 296 301 321 321 310 310 305 311 307 297 291 286 277 264 254 246 240 209 199 200 187 171 170 164 155 149 144 135 134 129 130 125 128 118 114 103 104 114 96 92
239 354 275 231 290 301 288 296 284 316 318 314 310 313 315 329 310 303 302 298 289 274 261 244 236 236 202 186 169 197 164 160 153 151 142 141 138 132 133 131 122 122 121 116 118 120 106 105 95
206 248 216 262 264 295 305 306 313 318 307 311 318 321 332 310 304 309 302 298 288 284 250 229 222 219 187 168 165 145 156 142 142 141 137 136 134 139 133 133 126 118 120 118 120 112 106 103 119
261 270 280 270 284 285 294 273 290 281 326 318 321 333 317 313 312 310 306 303 300 298 300 203 199 192 164 158 138 131 135 139 140 138 137 137 140 133 134 132 125 123 131 127 125 131 145 141 166